User: anonymous   Login
Location: DARK SKY Beskydy - Park tmavé oblohy, www.darkskybeskydy.cz
(49.4926°N, 18.5016°E)
Time: 18:08:39
(UTC+02:00)
Language:

Explorer 7 - Orbit

View from above orbital plane
View from above orbital plane
View from above satellite
View from above satellite

Ground track
Ground track

The orbit data is extracted from the following two-line orbital elements,

1    22U 59009A   24196.22382707  .00011036  00000-0  63072-3 0  9992
2    22  50.2783 283.6544 0111404 214.8424 144.5200 15.07982678448442
Epoch (UTC): 14 July 2024 05:22:18
Eccentricity: 0.0111404
inclination: 50.2783°
perigee height: 465 km
apogee height: 619 km
right ascension of ascending node: 283.6544°
argument of perigee: 214.8424°
revolutions per day: 15.07982678
mean anomaly at epoch: 144.5200°
orbit number at epoch: 44844

The dashed part of the orbit path shows where the satellite is in the earth's shadow,  

DLR